When you browse on this site, cookies collect data to enhance your experience and personalize the content and advertising you see.
Visit our Privacy Policy to learn more. By continuing to use the site, you agree to this use of cookies and data.
EN

Hourly Weather Goias

Today, 19 September, Saturday

Time Temperature Precipitation Wind Pressure Humidity
00:00 +26°C° 0 mm 1 mps 714 mmHg 27%
01:00 +26°C° 0 mm 1 mps 714 mmHg 28%
02:00 +25°C° 0 mm 1 mps 714 mmHg 29%
03:00 +25°C° 0 mm 1 mps 713 mmHg 30%
04:00 +25°C° 0 mm 1 mps 714 mmHg 31%
05:00 +25°C° 0 mm 1 mps 714 mmHg 31%
06:00 +25°C° 0 mm 1 mps 714 mmHg 32%
07:00 +29°C° 0 mm 1 mps 715 mmHg 27%
08:00 +32°C° 0 mm 1 mps 716 mmHg 23%
09:00 +36°C° 0 mm 1 mps 717 mmHg 18%
10:00 +40°C° 0 mm 1 mps 717 mmHg 16%
11:00 +42°C° 0 mm 1 mps 717 mmHg 14%
12:00 +44°C° 0 mm 1 mps 717 mmHg 12%
13:00 +44°C° 0 mm 1 mps 716 mmHg 12%
14:00 +43°C° 0 mm 1 mps 715 mmHg 12%
15:00 +43°C° 0 mm 1 mps 714 mmHg 12%
16:00 +41°C° 0 mm 1 mps 714 mmHg 13%
17:00 +39°C° 0 mm 1 mps 713 mmHg 15%
18:00 +36°C° 0 mm 1 mps 713 mmHg 17%
19:00 +34°C° 0 mm 1 mps 713 mmHg 19%
20:00 +32°C° 0 mm 1 mps 714 mmHg 21%
21:00 +29°C° 0 mm 0 mps 714 mmHg 23%
22:00 +30°C° 0 mm 1 mps 714 mmHg 24%
23:00 +30°C° 0 mm 1 mps 714 mmHg 25%

Tomorrow, 20 September, Sunday

Time Temperature Precipitation Wind Pressure Humidity
00:00 +29°C° 0 mm 1 mps 714 mmHg 25%
01:00 +29°C° 0 mm 1 mps 714 mmHg 26%
02:00 +28°C° 0 mm 1 mps 714 mmHg 27%
03:00 +28°C° 0 mm 1 mps 713 mmHg 28%
04:00 +27°C° 0 mm 2 mps 714 mmHg 30%
05:00 +27°C° 0 mm 3 mps 714 mmHg 33%
06:00 +26°C° 0 mm 3 mps 714 mmHg 36%
07:00 +29°C° 0 mm 4 mps 715 mmHg 32%
08:00 +33°C° 0 mm 5 mps 716 mmHg 28%
09:00 +35°C° 0 mm 5 mps 716 mmHg 24%
10:00 +38°C° 0 mm 4 mps 716 mmHg 21%
11:00 +42°C° 0 mm 3 mps 716 mmHg 17%
12:00 +43°C° 0 mm 2 mps 716 mmHg 13%
13:00 +43°C° 0 mm 2 mps 715 mmHg 13%
14:00 +43°C° 0 mm 1 mps 714 mmHg 12%
15:00 +43°C° 0 mm 1 mps 713 mmHg 12%
16:00 +41°C° 0 mm 1 mps 713 mmHg 14%
17:00 +39°C° 0 mm 1 mps 712 mmHg 16%
18:00 +36°C° 0 mm 1 mps 712 mmHg 18%
19:00 +34°C° 0 mm 1 mps 712 mmHg 19%
20:00 +32°C° 0 mm 1 mps 713 mmHg 21%
21:00 +31°C° 0 mm 1 mps 713 mmHg 23%
22:00 +31°C° 0 mm 2 mps 713 mmHg 25%
23:00 +31°C° 0 mm 3 mps 714 mmHg 26%

Day after tomorrow, 21 September, Monday

Time Temperature Precipitation Wind Pressure Humidity
00:00 +32°C° 0 mm 4 mps 714 mmHg 28%
01:00 +30°C° 0 mm 4 mps 714 mmHg 32%
02:00 +29°C° 0 mm 4 mps 713 mmHg 36%
03:00 +28°C° 0 mm 4 mps 713 mmHg 40%
04:00 +27°C° 0 mm 4 mps 713 mmHg 40%
05:00 +27°C° 0 mm 3 mps 713 mmHg 41%
06:00 +27°C° 0 mm 3 mps 713 mmHg 41%
07:00 +29°C° 0 mm 3 mps 714 mmHg 35%
08:00 +33°C° 0 mm 3 mps 714 mmHg 29%
09:00 +35°C° 0 mm 3 mps 715 mmHg 23%
10:00 +38°C° 0 mm 3 mps 715 mmHg 20%
11:00 +41°C° 0 mm 4 mps 714 mmHg 17%
12:00 +44°C° 0 mm 4 mps 714 mmHg 14%
13:00 +43°C° 0 mm 3 mps 713 mmHg 14%
14:00 +43°C° 0 mm 3 mps 713 mmHg 14%
15:00 +42°C° 0 mm 2 mps 712 mmHg 14%
16:00 +40°C° 0 mm 2 mps 712 mmHg 17%
17:00 +38°C° 0 mm 2 mps 712 mmHg 19%
18:00 +35°C° 0 mm 1 mps 712 mmHg 21%
19:00 +34°C° 0 mm 1 mps 712 mmHg 23%
20:00 +33°C° 0 mm 1 mps 713 mmHg 24%
21:00 +32°C° 0 mm 1 mps 713 mmHg 26%
22:00 +31°C° 0.1 mm 3 mps 714 mmHg 33%
23:00 +30°C° 0.1 mm 5 mps 714 mmHg 40%

22 September, Tuesday

Time Temperature Precipitation Wind Pressure Humidity
00:00 +28°C° 0.1 mm 6 mps 714 mmHg 48%
01:00 +27°C° 0 mm 6 mps 714 mmHg 51%
02:00 +27°C° 0 mm 6 mps 714 mmHg 54%
03:00 +26°C° 0 mm 6 mps 714 mmHg 58%
04:00 +24°C° 0 mm 6 mps 714 mmHg 59%
05:00 +24°C° 0 mm 6 mps 715 mmHg 60%
06:00 +24°C° 0 mm 6 mps 715 mmHg 61%
07:00 +26°C° 0 mm 6 mps 715 mmHg 57%
08:00 +27°C° 0 mm 6 mps 716 mmHg 52%
09:00 +28°C° 0 mm 6 mps 716 mmHg 48%
10:00 +32°C° 0 mm 5 mps 716 mmHg 41%
11:00 +35°C° 0 mm 4 mps 716 mmHg 35%
12:00 +38°C° 0 mm 3 mps 716 mmHg 28%
13:00 +38°C° 0 mm 3 mps 715 mmHg 25%
14:00 +39°C° 0 mm 3 mps 714 mmHg 22%
15:00 +40°C° 0 mm 3 mps 714 mmHg 20%
16:00 +37°C° 0.1 mm 3 mps 714 mmHg 26%
17:00 +35°C° 0.1 mm 2 mps 714 mmHg 31%
18:00 +32°C° 0.1 mm 2 mps 714 mmHg 37%
19:00 +29°C° 0.1 mm 3 mps 715 mmHg 49%
20:00 +27°C° 0.1 mm 5 mps 716 mmHg 61%
21:00 +24°C° 0.1 mm 6 mps 716 mmHg 73%
22:00 +25°C° 0.1 mm 5 mps 716 mmHg 73%
23:00 +23°C° 0.1 mm 5 mps 716 mmHg 73%

23 September, Wednesday

Time Temperature Precipitation Wind Pressure Humidity
00:00 +23°C° 0.1 mm 4 mps 716 mmHg 74%
01:00 +23°C° 0.2 mm 5 mps 716 mmHg 73%
02:00 +23°C° 0.2 mm 5 mps 716 mmHg 73%
03:00 +23°C° 0.2 mm 6 mps 716 mmHg 73%
04:00 +23°C° 0 mm 5 mps 716 mmHg 71%
05:00 +23°C° 0 mm 5 mps 716 mmHg 68%
06:00 +23°C° 0 mm 4 mps 716 mmHg 66%
07:00 +27°C° 0 mm 4 mps 717 mmHg 58%
08:00 +29°C° 0 mm 4 mps 718 mmHg 51%
09:00 +32°C° 0 mm 4 mps 719 mmHg 43%
10:00 +35°C° 0 mm 4 mps 719 mmHg 37%
11:00 +37°C° 0 mm 4 mps 718 mmHg 31%
12:00 +39°C° 0 mm 3 mps 718 mmHg 25%
13:00 +38°C° 0.1 mm 4 mps 717 mmHg 30%
14:00 +36°C° 0.1 mm 4 mps 716 mmHg 36%
15:00 +34°C° 0.1 mm 4 mps 715 mmHg 41%
16:00 +32°C° 0.8 mm 4 mps 715 mmHg 48%
17:00 +29°C° 0.8 mm 3 mps 715 mmHg 54%
18:00 +26°C° 0.8 mm 3 mps 715 mmHg 61%
19:00 +26°C° 0.1 mm 3 mps 715 mmHg 61%
20:00 +26°C° 0.1 mm 3 mps 716 mmHg 62%
21:00 +25°C° 0.1 mm 2 mps 716 mmHg 63%
22:00 +25°C° 0.1 mm 2 mps 716 mmHg 64%
23:00 +25°C° 0.1 mm 2 mps 716 mmHg 64%

24 September, Thursday

Time Temperature Precipitation Wind Pressure Humidity
00:00 +25°C° 0.1 mm 2 mps 716 mmHg 65%
01:00 +25°C° 0.1 mm 2 mps 716 mmHg 66%
02:00 +24°C° 0.1 mm 2 mps 716 mmHg 67%
03:00 +24°C° 0.1 mm 2 mps 715 mmHg 68%
04:00 +24°C° 0 mm 2 mps 715 mmHg 68%
05:00 +24°C° 0 mm 2 mps 715 mmHg 68%
06:00 +24°C° 0 mm 2 mps 716 mmHg 67%
07:00 +26°C° 0 mm 3 mps 716 mmHg 59%
08:00 +29°C° 0 mm 3 mps 717 mmHg 51%
09:00 +32°C° 0 mm 4 mps 718 mmHg 43%
10:00 +35°C° 0 mm 3 mps 718 mmHg 37%
11:00 +37°C° 0 mm 3 mps 718 mmHg 31%
12:00 +40°C° 0 mm 2 mps 718 mmHg 25%
13:00 +39°C° 0 mm 2 mps 717 mmHg 25%
14:00 +39°C° 0 mm 1 mps 716 mmHg 25%
15:00 +39°C° 0 mm 1 mps 715 mmHg 25%
16:00 +36°C° 0 mm 1 mps 715 mmHg 28%
17:00 +35°C° 0 mm 1 mps 715 mmHg 30%
18:00 +33°C° 0 mm 1 mps 715 mmHg 33%
19:00 +32°C° 0.1 mm 1 mps 715 mmHg 36%
20:00 +31°C° 0.1 mm 1 mps 716 mmHg 39%
21:00 +30°C° 0.1 mm 2 mps 716 mmHg 43%
22:00 +29°C° 0 mm 2 mps 716 mmHg 48%
23:00 +28°C° 0 mm 2 mps 716 mmHg 53%
Show more